Weather History for Klamath Falls, OR

Change the Weather History Date:

Friday, May 9, 2014

  Actual Average Record
Temperature  
Mean Temperature 47 °F 50 °F  
Max Temperature 55 °F 64 °F 83 °F (1987)
Min Temperature 38 °F 35 °F 19 °F (1999)
Degree Days  
Heating Degree Days 18 16  
Month to date heating degree days 138 150  
Since 1 July heating degree days 6225 6469  
Cooling Degree Days 0 0  
Month to date cooling degree days 0 0  
Year to date cooling degree days 0 0  
Moisture  
Dew Point 35 °F    
Average Humidity 72    
Maximum Humidity 89    
Minimum Humidity 41    
Precipitation  
Precipitation 0.08 in 0.06 in 0.78 in (1967)
Month to date precipitation 0.51 0.62  
Year to date precipitation 5.30 7.03  
Sea Level Pressure  
Sea Level Pressure 30.01 in    
Wind  
Wind Speed 14 mph (West)    
Max Wind Speed 25 mph    
Max Gust Speed 32 mph    
Visibility 10 miles    
Events Rain    
T = Trace of Precipitation, MM = Missing Value Source: NWS Daily Summary

Daily Weather History Graph

Daily Weather History Graph

Search for Another Location

Airport:

Trip Planner

Search our weather history database for the weather conditions in past years. The results will help you decide how hot, cold, wet, or windy it might be!

Date:

Astronomy

May. 09, 2014 Rise Set
Actual Time 5:52 AM PDT 8:14 PM PDT
Civil Twilight 5:21 AM PDT 8:46 PM PDT
Nautical Twilight 4:42 AM PDT 9:25 PM PDT
Astronomical Twilight 3:59 AM PDT 10:08 PM PDT
Moon 3:12 PM PDT (5/9) 3:03 AM PDT (5/9)
Length of Visible Light 15h 25m
Length of Day
14h 22m
Waxing Gibbous, 74% of the Moon is Illuminated
May 9
Waxing Gibbous
May 14
Full
May 21
Last Quarter
May 28
New
Jun 5
First Quarter

Hourly Weather History & Observations

Time (PDT) Temp. Windchill Dew Point Humidity Pressure Visibility Wind Dir Wind Speed Gust Speed Precip Events Conditions
12:07 AM 45.0 °F 38.5 °F 39.9 °F 82% 29.93 in 10.0 mi West 13.8 mph - N/A   Overcast
12:45 AM 45.0 °F 38.9 °F 39.0 °F 80% 29.94 in 10.0 mi West 12.7 mph - 0.00 in Rain Light Rain
12:53 AM 45.0 °F 38.5 °F 39.0 °F 80% 29.90 in 10.0 mi West 13.8 mph - 0.00 in   Overcast
1:31 AM 45.0 °F 38.9 °F 37.9 °F 76% 29.95 in 10.0 mi West 12.7 mph - 0.00 in   Overcast
2:53 AM 43.0 °F 36.0 °F 39.0 °F 86% 29.92 in 10.0 mi West 13.8 mph - 0.02 in Rain Light Rain
3:53 AM 43.0 °F 36.8 °F 37.9 °F 82% 29.93 in 10.0 mi West 11.5 mph - 0.01 in Rain Light Rain
4:03 AM 42.1 °F 37.1 °F 37.9 °F 85% 29.98 in 10.0 mi West 8.1 mph - 0.00 in Rain Light Rain
4:42 AM 42.1 °F 35.2 °F 36.0 °F 79% 29.98 in 10.0 mi West 12.7 mph - 0.00 in Rain Light Rain
5:25 AM 41.0 °F 35.2 °F 36.0 °F 82% 29.99 in 10.0 mi West 9.2 mph - 0.00 in   Overcast
5:53 AM 41.0 °F 34.3 °F 36.0 °F 82% 29.98 in 10.0 mi West 11.5 mph - 0.00 in   Overcast
6:28 AM 39.9 °F 32.1 °F 35.1 °F 83% 30.02 in 10.0 mi West 13.8 mph - 0.01 in Rain Light Rain
6:53 AM 39.9 °F 33.4 °F 35.1 °F 83% 30.01 in 10.0 mi West 10.4 mph - 0.01 in   Overcast
7:40 AM 41.0 °F 35.8 °F 36.0 °F 82% 30.03 in 10.0 mi WSW 8.1 mph - 0.00 in   Overcast
7:53 AM 42.1 °F 36.1 °F 35.1 °F 76% 30.01 in 10.0 mi WSW 10.4 mph - 0.00 in   Overcast
8:53 AM 43.0 °F 36.4 °F 35.1 °F 74% 30.02 in 10.0 mi West 12.7 mph - N/A   Mostly Cloudy
9:53 AM 45.0 °F 40.1 °F 35.1 °F 68% 30.02 in 10.0 mi WSW 9.2 mph - N/A   Mostly Cloudy
10:53 AM 46.0 °F 39.0 °F 36.0 °F 68% 30.04 in 9.0 mi West 17.3 mph 25.3 mph 0.00 in Rain Light Rain
11:53 AM 50.0 °F - 34.0 °F 54% 30.00 in 10.0 mi West 16.1 mph 23.0 mph 0.00 in   Mostly Cloudy
12:53 PM 54.0 °F - 33.1 °F 45% 29.98 in 10.0 mi West 18.4 mph - 0.00 in   Mostly Cloudy
1:53 PM 54.0 °F - 30.0 °F 40% 29.98 in 10.0 mi WSW 18.4 mph 27.6 mph N/A   Overcast
2:53 PM 52.0 °F - 30.0 °F 43% 29.97 in 10.0 mi West 16.1 mph 21.9 mph N/A   Overcast
3:53 PM 54.0 °F - 34.0 °F 47% 29.96 in 10.0 mi West 20.7 mph 29.9 mph N/A   Mostly Cloudy
4:53 PM 51.1 °F - 36.0 °F 56% 29.99 in 10.0 mi WNW 20.7 mph 28.8 mph N/A   Mostly Cloudy
5:53 PM 46.9 °F - 34.0 °F 61% 30.01 in 10.0 mi WNW 23.0 mph - N/A   Overcast
6:53 PM 46.0 °F 38.8 °F 35.1 °F 66% 30.04 in 10.0 mi WNW 18.4 mph - N/A   Mostly Cloudy
7:53 PM 43.0 °F 35.7 °F 35.1 °F 74% 30.05 in 10.0 mi West 15.0 mph - 0.00 in   Overcast
8:53 PM 42.1 °F 37.1 °F 35.1 °F 76% 30.06 in 10.0 mi WNW 8.1 mph - 0.00 in   Overcast
9:21 PM 41.0 °F 37.1 °F 36.0 °F 82% 30.08 in 10.0 mi NW 5.8 mph - 0.01 in   Overcast
9:28 PM 41.0 °F 38.0 °F 36.0 °F 82% 30.08 in 10.0 mi NW 4.6 mph - 0.01 in   Overcast
9:53 PM 41.0 °F 35.8 °F 34.0 °F 76% 30.08 in 10.0 mi NNW 8.1 mph - 0.01 in   Overcast
10:03 PM 41.0 °F 36.4 °F 34.0 °F 76% 30.10 in 10.0 mi NNW 6.9 mph - N/A   Overcast
10:53 PM 39.9 °F 32.5 °F 33.1 °F 77% 30.09 in 10.0 mi WNW 12.7 mph - 0.00 in   Overcast
11:04 PM 39.0 °F 31.8 °F 32.0 °F 76% 30.10 in 10.0 mi WNW 11.5 mph - N/A   Overcast
11:53 PM 39.0 °F 34.0 °F 32.0 °F 76% 30.08 in 10.0 mi WNW 6.9 mph - N/A   Overcast